Regional Weather Roundup
Issued by NWS Upton, NY

Current Version | Previous Version | Text Only | Print | Product List | Glossary On
Versions: 1 2 3 4 5 6 7 8 9 10 11 12 13 14 15 16 17 18 19 20 21 22 23 24 25 26 27
000
ASUS41 KOKX 212208
RWROKX

REGIONAL WEATHER ROUNDUP
NATIONAL WEATHER SERVICE NEW YORK NY
500 PM EST SAT JAN 21 2017

NOTE: "FAIR" INDICATES FEW OR NO CLOUDS BELOW 12,000 FEET WITH NO
SIGNIFICANT WEATHER AND/OR OBSTRUCTIONS TO VISIBILITY.

NYZ071-072-176-178-NJZ106-104-212300-
NEW YORK CITY METRO AREA

CITY           SKY/WX    TMP DP  RH WIND       PRES   REMARKS
Central Park   CLEAR     45  43  93 W6        29.83S FOG
Wall St Helipt CLOUDY    46  43  89 W7        29.83S
LaGuardia APRT PTCLDY    48  43  82 SW9       29.81S
Kennedy INTL   CLOUDY    46  46 100 SW10      29.83S FOG
Breezy Point     N/A     43 N/A N/A W7          N/A
Newark/Liberty CLOUDY    47  44  90 SW7       29.82S
Teterboro      PTCLDY    47  44  90 S6        29.81S FOG
$$

NYZ177-179-078>081-212300-
LONG ISLAND NEW YORK

CITY           SKY/WX    TMP DP  RH WIND       PRES   REMARKS
Jones Beach      N/A     43 N/A N/A W7          N/A
Matinecock PT  NOT AVBL
Farmingdale    CLOUDY    45  42  89 W7        29.82R FOG
MacArthur/ISP  FOG       42  42 100 SW6       29.81S VSB 1/4
Shirley        FOG       41  41 100 SW7       29.81F VSB<1/4
Westhampton    FOG       42  40  92 SW6       29.82S VSB 1/4
Southampton    NOT AVBL
Bridgehampton  NOT AVBL
East Hampton   FOG       41  40  98 SW5       29.80S VSB 1/2
Montauk          N/A     44  43  96 SW5       29.81R
$$

NYZ052-065-067-212300-
HUDSON VALLEY

CITY           SKY/WX    TMP DP  RH WIND       PRES   REMARKS
White Plains   CLEAR     49  42  77 S3        29.78F
Newburgh       PTCLDY    48  45  87 CALM      29.80S
Montgomery     CLEAR     46  43  89 SW6       29.78R
Poughkeepsie   CLEAR     51  43  74 CALM      29.77S
Albany         PTCLDY    48  40  73 S3        29.78R
$$

NJZ001-105-106-008-010-013-015-019>022-104-212300-
NEW JERSEY

CITY           SKY/WX    TMP DP  RH WIND       PRES   REMARKS
Newark/Liberty CLOUDY    47  44  90 SW7       29.82S
Teterboro      PTCLDY    47  44  90 S6        29.81S FOG
Caldwell       CLOUDY    46  44  93 W5        29.81F
Somerville     CLOUDY    47  44  90 W5        29.81S
Linden         CLOUDY    46  44  91 CALM      29.82S
Sussex         CLOUDY    44  44 100 S5        29.80S FOG
Andover          N/A     44  43  96 S3        29.81S
Trenton        CLOUDY    46  45  96 W3        29.82S FOG
Millville      CLOUDY    46  46 100 W3        29.83F FOG
Atlantic City  CLOUDY    47  44  90 W7        29.83F
Wrightstown    CLOUDY    46  45  96 CALM      29.80S FOG
Toms River     CLOUDY    46  46 100 SW5       29.83F FOG
Belmar         CLOUDY    46  45  96 SW7       29.83S FOG
$$

PAZ047>061-062-071-212300-
EASTERN PENNSYLVANIA

CITY           SKY/WX    TMP DP  RH WIND       PRES   REMARKS
Philadelphia   FOG       46  45  96 SW6       29.84S VSB 1/2
Allentown      FOG       46  43  89 W3        29.81F VSB 1/2
Scranton       CLOUDY    46  46 100 VRB3      29.79S FOG
$$

CTZ002-004>006-009-010-012-RIZ004-006-007-MAZ004-011-015-212300-
SOUTHERN NEW ENGLAND
 IN CT

CITY           SKY/WX    TMP DP  RH WIND       PRES   REMARKS
Bradley INTL   PTCLDY    48  41  76 S6        29.76S
Hartford       CLEAR     51  43  74 S7        29.76F
Danbury        CLEAR     44  42  93 CALM      29.80S
Wtrbury/Oxford PTCLDY    48  39  71 CALM      29.79S
Bridgeport     CLEAR     47  41  80 SW5       29.79F
Meriden        CLEAR     47  41  80 S6        29.78S
New Haven      MOCLDY    42  39  89 SE3       29.79F FOG
Chester          N/A     43  41  93 W6        29.78F FOG
Groton         CLOUDY    43  42  97 SW10      29.79S FOG
Wilimantic     CLEAR     53  44  71 S5        29.77S

 IN RI

CITY           SKY/WX    TMP DP  RH WIND       PRES   REMARKS
Providence     MOCLDY    51  42  71 SW7       29.77R
Block Island   NOT AVBL
Westerly       FOG       43  39  86 W10G18    29.80R VSB 1/2
 IN MA

CITY           SKY/WX    TMP DP  RH WIND       PRES   REMARKS
Boston         CLOUDY    54  43  66 W10       29.74R
Worcester      CLOUDY    48  39  71 SW12      29.74R
Westfield      CLEAR     50  43  77 CALM      29.75F
Provincetown   CLOUDY    44  41  89 SW13      29.75R
Nantucket      FOG       42  40  92 W17       29.78S VSB 1/4
$$

ANZ330-335-338-340-345-350-353-355-212300-
COASTAL MARINE OBSERVATIONS


STATION/POSITION TIME  SKY/WX   TEMP    WIND        PRES    VSBY  WAVE
                                AIR SEA DIR/SP/G                  HT/PER
                 (UTC)          (F)     (DEG/KT/KT) (MB)    (MI)  (FT/S)
NY HARB ENTRANCE 2050            45 44  250/  6/  8 1010.0          3/13
20 S FIRE ISLAND 2150            44 45  250/ 12/ 14 1009.7          3/11
GREAT SOUTH BAY  NOT AVBL
23 SSW MONTAUK P 2050            43 47  240/ 12/ 16 1009.7          4/12
15 E BARNEGAT LI 2130               47                N/A           3/11
HUDSON CANYON    2050            48 51              1010.4          6/12
KINGS POINT      2130            45 40              1009.2
EXECUTION ROCKS  2145            44     220/  8/ 10   N/A
CENTRAL LI SOUND 2130            44     270/  4/  4   N/A           0
EASTERN LI SOUND NOT AVBL
ROBBINS REEF     2130            46     270/  8/  9 1009.9
$$


>>>>>>>>>>>>>>>>>>>>>>>>>>>> KEY <<<<<<<<<<<<<<<<<<<<<<<<<<<
>                                                          <
>     SKY/WX - Sky Condition/Present Weather               <
>     TMP    - Temperature in Fahrenheit                   <
>     DP     - Dew Point in Fahrenheit                     <
>     RH     - Relative Humidity in Percent                <
>     WIND   - Direction (from) and Speed in MPH           <
>     PRES   - Mean Sea Level Pressure (inches of Hg)      <
>     WCI    - Wind Chill Index                            <
>     VSB    - VISIBILITY IN MILES                         <
>     HX     - HEAT INDEX                                  <
>     TC     - TEMPERATURE IN CELSIUS                      <
>     VRB    - VARIABLE WIND DIRECTION                     <
>                                                          <
>>>>>>>>>>>>>>>>>>>>>>>>>>>> KEY <<<<<<<<<<<<<<<<<<<<<<<<<<<




USA.gov is the U.S. government's official web portal to all federal, state and local government web resources and services.